Notices

What's New in latest Release from April 7th, 2021:

- Updated Glossary, including Speed of Maximum Gust, and Total Hourly Precipitation

- Updated national and regional climate services offices contacts and prices information

- Addition of station inventory lists for 1981-2010, 1971-2000, and 1961-1990 Normals.

If you haven't already, please take our survey and provide feedback about our website: https://eccc.sondage-survey.ca/f/LanguageSelection.aspx?s=442ca660-fcf1-47c0-95a9-59707d6fd709

Hourly Data Report for August 29, 2020

TORONTO CITY
ONTARIO
Current Station Operator: ECCC - MSC

43°40'00.000" N
79°24'00.000" W
112.50 m
6158355
71508
XTO

Download Data

Hourly Data (August 2020)
Hourly Data Report for August 29, 2020
TIME
LST
Temp Definition
°C
Dew Point Definition
°C
Rel Hum Definition
%
Precip. Amount Definition
mm

Wind Dir Definition
10's deg

Wind Spd Definition
km/h
Visibility Definition
km
Stn Press Definition
kPa
Hmdx Definition


Wind Chill Definition


Weather Definition


00:00 19.4 17.2 87 0.0       99.00     LegendNANA
01:00 20.0 17.8 87 0.0       98.84 26   LegendNANA
02:00 21.1 18.8 87 0.0       98.71 28   LegendNANA
03:00 21.8 19.3 86 0.0       98.62 29   LegendNANA
04:00 21.8 19.1 84 0.0       98.53 29   LegendNANA
05:00 21.6 18.9 85 0.0       98.46 28   LegendNANA
06:00 21.9 19.1 84 0.0       98.43 29   LegendNANA
07:00 22.1 19.2 84 0.0       98.44 29   LegendNANA
08:00 22.4 19.5 83 0.0       98.41 30   LegendNANA
09:00 23.2 18.1 73 0.0       98.36 29   LegendNANA
10:00 24.9 17.8 65 0.0       98.33 31   LegendNANA
11:00 26.8 16.0 52 0.0       98.30 31   LegendNANA
12:00 25.6 15.7 54 0.0       98.31 30   LegendNANA
13:00 25.4 15.5 54 0.0       98.36 30   LegendNANA
14:00 22.6 15.2 63 0.0       98.51 27   LegendNANA
15:00 22.6 13.0 55 0.0       98.57 25   LegendNANA
16:00 22.0 11.8 52 0.0       98.69     LegendNANA
17:00 22.5 11.2 49 0.0       98.80     LegendNANA
18:00 21.7 10.3 48 0.0       98.88     LegendNANA
19:00 20.8 10.6 52 0.0       98.94     LegendNANA
20:00 20.6 11.5 56 0.0       99.01     LegendNANA
21:00 19.7 10.5 55 0.0       99.02     LegendNANA
22:00 19.3 10.9 58 0.0       99.06     LegendNANA
23:00 18.9 10.3 58 0.0       99.09     LegendNANA

Notes on Data Quality.

Legend

  • E = Estimated
  • M = Missing
  • NA = Not Available*
  • [empty] = Indicates an unobserved value
Date modified: